Flag for U.S.A. Weather past 2 weeks in Alpena, Michigan, U.S.A.

Now
58 °F

Thunderstorms. Broken clouds.


Feels Like: 56 °F
Forecast: 56 / 69 °F
Wind: 9 mph from Southwest

Location: Alpena County Regional Airport

Current Time: Sep 20, 2014 at 11:03:21 AM

Latest Report: Sep 20, 2014 at 8:54 AM


Visibility: 10 mi

Pressure: 29.75 "Hg

Humidity: 87%

Dew point: 54 °F

Location of AlpenaLocation

Historic Weather in Alpena — Graph

°F

Alpena temperature yesterday

Maximum temperature yesterday: 64 °F (at 3:54 PM)
Minimum temperature yesterday: 33 °F (at 5:54 AM)
Average temperature yesterday: 50 °F

Past Weeks' High & Low Weather Summary

 TemperatureHumidityPressure
High79 °F (Sep 9, 2:54 PM)100% (Sep 13, 2:54 AM)30.37 "Hg (Sep 13, 2:54 AM)
Low33 °F (Sep 14, 5:54 AM)36% (Sep 7, 3:54 PM)29.39 "Hg (Sep 10, 7:54 PM)
Average55 °F78%30.08 "Hg
* Reported Sep 5 8:54 AM — Sep 20 8:54 AM, Alpena, Weather by CustomWeather, © 2014

Note: Actual official high and low records may vary slightly from our data, if they occured in-between our weather recording intervals... More about our weather records

Advertising

Alpena weather history for previous 24 hours

 ConditionsComfort  
Time TempWeatherWind HumidityBarometerVisibility
8:54 AM
Sep 20
58 °FThunderstorms. Broken clouds.9 mph87%29.75 "Hg10 mi
7:54 AM61 °FThunderstorms. Mostly cloudy.10 mph72%29.78 "Hg10 mi
6:54 AM61 °FClear.8 mph65%29.78 "Hg10 mi
5:54 AM59 °FPassing clouds.8 mph67%29.79 "Hg10 mi
4:54 AM59 °FMostly cloudy.13 mph67%29.79 "Hg10 mi
3:54 AM59 °FPassing clouds.10 mph67%29.81 "Hg10 mi
2:54 AM59 °FMostly cloudy.12 mph67%29.83 "Hg10 mi
1:54 AM60 °FThunderstorms. Overcast.15 mph65%29.86 "Hg10 mi
12:54 AM59 °FPassing clouds.12 mph64%29.89 "Hg10 mi
11:54 PM
Sep 19
58 °FPassing clouds.10 mph65%29.90 "Hg10 mi
10:54 PM58 °FClear.16 mph62%29.90 "Hg10 mi
9:54 PM57 °FClear.12 mph69%29.94 "Hg10 mi
8:54 PM57 °FClear.8 mph74%29.98 "Hg10 mi
7:54 PM57 °FSunny.9 mph78%29.98 "Hg10 mi
6:54 PM61 °FSunny.12 mph65%30.01 "Hg10 mi
5:54 PM62 °FSunny.15 mph62%30.02 "Hg10 mi
4:54 PM64 °FSunny.17 mph58%30.06 "Hg10 mi
3:54 PM64 °FSunny.18 mph54%30.11 "Hg10 mi
2:54 PM63 °FSunny.17 mph56%30.13 "Hg10 mi
1:54 PM62 °FSunny.14 mph56%30.17 "Hg10 mi
12:54 PM60 °FSunny.14 mph58%30.19 "Hg10 mi
11:54 AM57 °FSunny.13 mph62%30.22 "Hg10 mi
Weather by CustomWeather, © 2014

See weather overviewHow to use our weather pages